Year,Month,Day,Hour,Minute,Value (Times are PST for temperature in C)
2017,06,26,00,00,20.70
2017,06,26,00,01,20.80
2017,06,26,00,02,20.80
2017,06,26,00,03,20.90
2017,06,26,00,04,20.90
2017,06,26,00,05,20.90
2017,06,26,00,06,20.90
2017,06,26,00,07,20.90
2017,06,26,00,08,20.90
2017,06,26,00,09,20.90
2017,06,26,00,10,20.90
2017,06,26,00,11,20.90
2017,06,26,00,12,21.00
2017,06,26,00,13,21.00
2017,06,26,00,14,20.90
2017,06,26,00,15,20.90
2017,06,26,00,16,20.90
2017,06,26,00,17,20.90
2017,06,26,00,18,21.00
2017,06,26,00,19,21.00
2017,06,26,00,20,21.00
2017,06,26,00,21,21.00
2017,06,26,00,22,21.00
2017,06,26,00,23,21.00
2017,06,26,00,24,20.90
2017,06,26,00,25,20.90
2017,06,26,00,26,20.90
2017,06,26,00,27,20.90
2017,06,26,00,28,20.90
2017,06,26,00,29,20.90
2017,06,26,00,30,20.90
2017,06,26,00,31,20.90
2017,06,26,00,32,20.90
2017,06,26,00,33,20.80
2017,06,26,00,34,20.80
2017,06,26,00,35,20.80
2017,06,26,00,36,20.80
2017,06,26,00,37,20.80
2017,06,26,00,38,20.80
2017,06,26,00,39,20.70
2017,06,26,00,40,20.70
2017,06,26,00,41,20.70
2017,06,26,00,42,20.60
2017,06,26,00,43,20.60
2017,06,26,00,44,20.50
2017,06,26,00,45,20.50
2017,06,26,00,46,20.50
2017,06,26,00,47,20.50
2017,06,26,00,48,20.50
2017,06,26,00,49,20.50
2017,06,26,00,50,20.50
2017,06,26,00,51,20.50
2017,06,26,00,52,20.60
2017,06,26,00,53,20.60
2017,06,26,00,54,20.60
2017,06,26,00,55,20.60
2017,06,26,00,56,20.60
2017,06,26,00,57,20.60
2017,06,26,00,58,20.60
2017,06,26,00,59,20.60
2017,06,26,01,00,20.60
2017,06,26,01,01,20.60
2017,06,26,01,02,20.60
2017,06,26,01,03,20.60
2017,06,26,01,04,20.60
2017,06,26,01,05,20.70
2017,06,26,01,06,20.70
2017,06,26,01,07,20.70
2017,06,26,01,08,20.80
2017,06,26,01,09,20.90
2017,06,26,01,10,21.00
2017,06,26,01,11,21.00
2017,06,26,01,12,21.10
2017,06,26,01,13,21.10
2017,06,26,01,14,21.20
2017,06,26,01,15,21.20
2017,06,26,01,16,21.30
2017,06,26,01,17,21.30
2017,06,26,01,18,21.30
2017,06,26,01,19,21.30
2017,06,26,01,20,21.30
2017,06,26,01,21,21.30
2017,06,26,01,22,21.30
2017,06,26,01,23,21.30
2017,06,26,01,24,21.30
2017,06,26,01,25,21.30
2017,06,26,01,26,21.30
2017,06,26,01,27,21.30
2017,06,26,01,28,21.30
2017,06,26,01,29,21.30
2017,06,26,01,30,21.30
2017,06,26,01,31,21.30
2017,06,26,01,32,21.30
2017,06,26,01,33,21.30
2017,06,26,01,34,21.30
2017,06,26,01,35,21.20
2017,06,26,01,36,21.20
2017,06,26,01,37,21.20
2017,06,26,01,38,21.20
2017,06,26,01,39,21.20
2017,06,26,01,40,21.30
2017,06,26,01,41,21.30
2017,06,26,01,42,21.30
2017,06,26,01,43,21.30
2017,06,26,01,44,21.30
2017,06,26,01,45,21.30
2017,06,26,01,46,21.40
2017,06,26,01,47,21.50
2017,06,26,01,48,21.60
2017,06,26,01,49,21.60
2017,06,26,01,50,21.70
2017,06,26,01,51,21.80
2017,06,26,01,52,21.80
2017,06,26,01,53,21.80
2017,06,26,01,54,21.80
2017,06,26,01,55,21.90
2017,06,26,01,56,21.90
2017,06,26,01,57,21.90
2017,06,26,01,58,21.90
2017,06,26,01,59,22.00
2017,06,26,02,00,22.00
2017,06,26,02,01,22.00
2017,06,26,02,02,22.00
2017,06,26,02,03,22.00
2017,06,26,02,04,22.10
2017,06,26,02,05,22.10
2017,06,26,02,06,22.10
2017,06,26,02,07,22.10
2017,06,26,02,08,22.20
2017,06,26,02,09,22.20
2017,06,26,02,10,22.30
2017,06,26,02,11,22.40
2017,06,26,02,12,22.50
2017,06,26,02,13,22.50
2017,06,26,02,14,22.60
2017,06,26,02,15,22.70
2017,06,26,02,16,22.80
2017,06,26,02,17,22.80
2017,06,26,02,18,22.80
2017,06,26,02,19,22.90
2017,06,26,02,20,22.80
2017,06,26,02,21,22.80
2017,06,26,02,22,22.80
2017,06,26,02,23,22.80
2017,06,26,02,24,22.70
2017,06,26,02,25,22.70
2017,06,26,02,26,22.60
2017,06,26,02,27,22.60
2017,06,26,02,28,22.50
2017,06,26,02,29,22.50
2017,06,26,02,30,22.40
2017,06,26,02,31,22.30
2017,06,26,02,32,22.30
2017,06,26,02,33,22.20
2017,06,26,02,34,22.10
2017,06,26,02,35,22.10
2017,06,26,02,36,22.10
2017,06,26,02,37,22.10
2017,06,26,02,38,22.10
2017,06,26,02,39,22.10
2017,06,26,02,40,22.10
2017,06,26,02,41,22.10
2017,06,26,02,42,22.10
2017,06,26,02,43,22.10
2017,06,26,02,44,22.10
2017,06,26,02,45,22.10
2017,06,26,02,46,22.10
2017,06,26,02,47,22.10
2017,06,26,02,48,22.10
2017,06,26,02,49,22.10
2017,06,26,02,50,22.10
2017,06,26,02,51,22.00
2017,06,26,02,52,21.90
2017,06,26,02,53,21.90
2017,06,26,02,54,21.80
2017,06,26,02,55,21.70
2017,06,26,02,56,21.60
2017,06,26,02,57,21.60
2017,06,26,02,58,21.60
2017,06,26,02,59,21.50
2017,06,26,03,00,21.40
2017,06,26,03,01,21.40
2017,06,26,03,02,21.30
2017,06,26,03,03,21.30
2017,06,26,03,04,21.30
2017,06,26,03,05,21.30
2017,06,26,03,06,21.40
2017,06,26,03,07,21.40
2017,06,26,03,08,21.40
2017,06,26,03,09,21.50
2017,06,26,03,10,21.60
2017,06,26,03,11,21.60
2017,06,26,03,12,21.60
2017,06,26,03,13,21.70
2017,06,26,03,14,21.90
2017,06,26,03,15,22.00
2017,06,26,03,16,22.10
2017,06,26,03,17,22.20
2017,06,26,03,18,22.30
2017,06,26,03,19,22.40
2017,06,26,03,20,22.30
2017,06,26,03,21,22.20
2017,06,26,03,22,22.00
2017,06,26,03,23,21.90
2017,06,26,03,24,21.80
2017,06,26,03,25,21.70
2017,06,26,03,26,21.60
2017,06,26,03,27,21.60
2017,06,26,03,28,21.50
2017,06,26,03,29,21.40
2017,06,26,03,30,21.30
2017,06,26,03,31,21.20
2017,06,26,03,32,21.10
2017,06,26,03,33,21.00
2017,06,26,03,34,20.90
2017,06,26,03,35,20.80
2017,06,26,03,36,20.70
2017,06,26,03,37,20.50
2017,06,26,03,38,20.40
2017,06,26,03,39,20.20
2017,06,26,03,40,20.10
2017,06,26,03,41,20.00
2017,06,26,03,42,19.90
2017,06,26,03,43,19.80
2017,06,26,03,44,19.70
2017,06,26,03,45,19.70
2017,06,26,03,46,19.60
2017,06,26,03,47,19.60
2017,06,26,03,48,19.60
2017,06,26,03,49,19.50
2017,06,26,03,50,19.50
2017,06,26,03,51,19.50
2017,06,26,03,52,19.50
2017,06,26,03,53,19.40
2017,06,26,03,54,19.40
2017,06,26,03,55,19.40
2017,06,26,03,56,19.30
2017,06,26,03,57,19.20
2017,06,26,03,58,19.10
2017,06,26,03,59,19.10
2017,06,26,04,00,18.90
2017,06,26,04,01,18.90
2017,06,26,04,02,18.80
2017,06,26,04,03,18.70
2017,06,26,04,04,18.60
2017,06,26,04,05,18.50
2017,06,26,04,06,18.40
2017,06,26,04,07,18.40
2017,06,26,04,08,18.20
2017,06,26,04,09,18.20
2017,06,26,04,10,18.10
2017,06,26,04,11,18.00
2017,06,26,04,12,17.90
2017,06,26,04,13,17.90
2017,06,26,04,14,17.90
2017,06,26,04,15,17.90
2017,06,26,04,16,17.90
2017,06,26,04,17,17.90
2017,06,26,04,18,17.90
2017,06,26,04,19,17.90
2017,06,26,04,20,17.80
2017,06,26,04,21,17.80
2017,06,26,04,22,17.80
2017,06,26,04,23,17.70
2017,06,26,04,24,17.70
2017,06,26,04,25,17.70
2017,06,26,04,26,17.70
2017,06,26,04,27,17.60
2017,06,26,04,28,17.60
2017,06,26,04,29,17.60
2017,06,26,04,30,17.60
2017,06,26,04,31,17.50
2017,06,26,04,32,17.50
2017,06,26,04,33,17.40
2017,06,26,04,34,17.30
2017,06,26,04,35,17.30
2017,06,26,04,36,17.20
2017,06,26,04,37,17.10
2017,06,26,04,38,17.00
2017,06,26,04,39,17.00
2017,06,26,04,40,16.90
2017,06,26,04,41,16.80
2017,06,26,04,42,16.70
2017,06,26,04,43,16.70
2017,06,26,04,44,16.60
2017,06,26,04,45,16.60
2017,06,26,04,46,16.60
2017,06,26,04,47,16.50
2017,06,26,04,48,16.40
2017,06,26,04,49,16.40
2017,06,26,04,50,16.40
2017,06,26,04,51,16.40
2017,06,26,04,52,16.40
2017,06,26,04,53,16.40
2017,06,26,04,54,16.30
2017,06,26,04,55,16.30
2017,06,26,04,56,16.30
2017,06,26,04,57,16.30
2017,06,26,04,58,16.20
2017,06,26,04,59,16.20
2017,06,26,05,00,16.20
2017,06,26,05,01,16.20
2017,06,26,05,02,16.20
2017,06,26,05,03,16.20
2017,06,26,05,04,16.20
2017,06,26,05,05,16.20
2017,06,26,05,06,16.20
2017,06,26,05,07,16.20
2017,06,26,05,08,16.20
2017,06,26,05,09,16.20
2017,06,26,05,10,16.10
2017,06,26,05,11,16.10
2017,06,26,05,12,16.10
2017,06,26,05,13,16.10
2017,06,26,05,14,16.10
2017,06,26,05,15,16.00
2017,06,26,05,16,15.90
2017,06,26,05,17,15.90
2017,06,26,05,18,15.90
2017,06,26,05,19,15.90
2017,06,26,05,20,15.90
2017,06,26,05,21,15.80
2017,06,26,05,22,15.80
2017,06,26,05,23,15.80
2017,06,26,05,24,15.80
2017,06,26,05,25,15.80
2017,06,26,05,26,15.80
2017,06,26,05,27,15.80
2017,06,26,05,28,15.70
2017,06,26,05,29,15.70
2017,06,26,05,30,15.60
2017,06,26,05,31,15.60
2017,06,26,05,32,15.60
2017,06,26,05,33,15.60
2017,06,26,05,34,15.50
2017,06,26,05,35,15.50
2017,06,26,05,36,15.40
2017,06,26,05,37,15.40
2017,06,26,05,38,15.30
2017,06,26,05,39,15.30
2017,06,26,05,40,15.30
2017,06,26,05,41,15.30
2017,06,26,05,42,15.30
2017,06,26,05,43,15.30
2017,06,26,05,44,15.30
2017,06,26,05,45,15.30
2017,06,26,05,46,15.40
2017,06,26,05,47,15.40
2017,06,26,05,48,15.40
2017,06,26,05,49,15.40
2017,06,26,05,50,15.40
2017,06,26,05,51,15.40
2017,06,26,05,52,15.40
2017,06,26,05,53,15.50
2017,06,26,05,54,15.50
2017,06,26,05,55,15.50
2017,06,26,05,56,15.50
2017,06,26,05,57,15.60
2017,06,26,05,58,15.60
2017,06,26,05,59,15.60
2017,06,26,06,00,15.60
2017,06,26,06,01,15.60
2017,06,26,06,02,15.70
2017,06,26,06,03,15.70
2017,06,26,06,04,15.70
2017,06,26,06,05,15.70
2017,06,26,06,06,15.80
2017,06,26,06,07,15.80
2017,06,26,06,08,15.80
2017,06,26,06,09,15.80
2017,06,26,06,10,15.80
2017,06,26,06,11,15.80
2017,06,26,06,12,15.80
2017,06,26,06,13,15.80
2017,06,26,06,14,15.90
2017,06,26,06,15,15.90
2017,06,26,06,16,16.00
2017,06,26,06,17,16.10
2017,06,26,06,18,16.10
2017,06,26,06,19,16.10
2017,06,26,06,20,16.10
2017,06,26,06,21,16.20
2017,06,26,06,22,16.20
2017,06,26,06,23,16.20
2017,06,26,06,24,16.30
2017,06,26,06,25,16.30
2017,06,26,06,26,16.40
2017,06,26,06,27,16.40
2017,06,26,06,28,16.40
2017,06,26,06,29,16.60
2017,06,26,06,30,16.60
2017,06,26,06,31,16.70
2017,06,26,06,32,16.70
2017,06,26,06,33,16.70
2017,06,26,06,34,16.70
2017,06,26,06,35,16.70
2017,06,26,06,36,16.70
2017,06,26,06,37,16.70
2017,06,26,06,38,16.70
2017,06,26,06,39,16.80
2017,06,26,06,40,16.80
2017,06,26,06,41,16.80
2017,06,26,06,42,16.80
2017,06,26,06,43,16.90
2017,06,26,06,44,16.90
2017,06,26,06,45,16.90
2017,06,26,06,46,16.90
2017,06,26,06,47,16.90
2017,06,26,06,48,16.90
2017,06,26,06,49,16.80
2017,06,26,06,50,16.80
2017,06,26,06,51,16.70
2017,06,26,06,52,16.70
2017,06,26,06,53,16.70
2017,06,26,06,54,16.70
2017,06,26,06,55,16.60
2017,06,26,06,56,16.60
2017,06,26,06,57,16.60
2017,06,26,06,58,16.60
2017,06,26,06,59,16.70
2017,06,26,07,00,16.70
2017,06,26,07,01,16.70
2017,06,26,07,02,16.70
2017,06,26,07,03,16.70
2017,06,26,07,04,16.80
2017,06,26,07,05,16.80
2017,06,26,07,06,16.90
2017,06,26,07,07,16.90
2017,06,26,07,08,17.00
2017,06,26,07,09,17.00
2017,06,26,07,10,17.10
2017,06,26,07,11,17.10
2017,06,26,07,12,17.10
2017,06,26,07,13,17.10
2017,06,26,07,14,17.10
2017,06,26,07,15,17.20
2017,06,26,07,16,17.20
2017,06,26,07,17,17.20
2017,06,26,07,18,17.20
2017,06,26,07,19,17.20
2017,06,26,07,20,17.30
2017,06,26,07,21,17.30
2017,06,26,07,22,17.30
2017,06,26,07,23,17.30
2017,06,26,07,24,17.30
2017,06,26,07,25,17.30
2017,06,26,07,26,17.30
2017,06,26,07,27,17.30
2017,06,26,07,28,17.40
2017,06,26,07,29,17.40
2017,06,26,07,30,17.40
2017,06,26,07,31,17.50
2017,06,26,07,32,17.50
2017,06,26,07,33,17.50
2017,06,26,07,34,17.60
2017,06,26,07,35,17.60
2017,06,26,07,36,17.70
2017,06,26,07,37,17.70
2017,06,26,07,38,17.80
2017,06,26,07,39,17.90
2017,06,26,07,40,18.00
2017,06,26,07,41,18.10
2017,06,26,07,42,18.20
2017,06,26,07,43,18.20
2017,06,26,07,44,18.30
2017,06,26,07,45,18.40
2017,06,26,07,46,18.50
2017,06,26,07,47,18.60
2017,06,26,07,48,18.70
2017,06,26,07,49,18.80
2017,06,26,07,50,18.90
2017,06,26,07,51,18.90
2017,06,26,07,52,18.90
2017,06,26,07,53,19.00
2017,06,26,07,54,19.10
2017,06,26,07,55,19.10
2017,06,26,07,56,19.00
2017,06,26,07,57,18.90
2017,06,26,07,58,18.90
2017,06,26,07,59,18.90
2017,06,26,08,00,18.90
2017,06,26,08,01,18.90
2017,06,26,08,02,18.90
2017,06,26,08,03,18.90
2017,06,26,08,04,18.90
2017,06,26,08,05,18.90
2017,06,26,08,06,19.00
2017,06,26,08,07,19.10
2017,06,26,08,08,19.10
2017,06,26,08,09,19.10
2017,06,26,08,10,19.10
2017,06,26,08,11,19.10
2017,06,26,08,12,19.10
2017,06,26,08,13,19.10
2017,06,26,08,14,19.10
2017,06,26,08,15,19.10
2017,06,26,08,16,19.10
2017,06,26,08,17,19.00
2017,06,26,08,18,18.80
2017,06,26,08,19,18.50
2017,06,26,08,20,18.20
2017,06,26,08,21,17.90
2017,06,26,08,22,17.60
2017,06,26,08,23,17.30
2017,06,26,08,24,17.10
2017,06,26,08,25,17.00
2017,06,26,08,26,16.90
2017,06,26,08,27,16.90
2017,06,26,08,28,16.80
2017,06,26,08,29,16.90
2017,06,26,08,30,17.00
2017,06,26,08,31,17.00
2017,06,26,08,32,17.00
2017,06,26,08,33,17.10
2017,06,26,08,34,17.10
2017,06,26,08,35,17.20
2017,06,26,08,36,17.20
2017,06,26,08,37,17.30
2017,06,26,08,38,17.30
2017,06,26,08,39,17.30
2017,06,26,08,40,17.20
2017,06,26,08,41,17.10
2017,06,26,08,42,17.10
2017,06,26,08,43,17.00
2017,06,26,08,44,17.00
2017,06,26,08,45,17.00
2017,06,26,08,46,16.90
2017,06,26,08,47,16.90
2017,06,26,08,48,16.90
2017,06,26,08,49,16.90
2017,06,26,08,50,16.90
2017,06,26,08,51,16.90
2017,06,26,08,52,16.90
2017,06,26,08,53,16.90
2017,06,26,08,54,16.90
2017,06,26,08,55,16.90
2017,06,26,08,56,17.00
2017,06,26,08,57,17.00
2017,06,26,08,58,17.10
2017,06,26,08,59,17.30
2017,06,26,09,00,17.30
2017,06,26,09,01,17.40
2017,06,26,09,02,17.40
2017,06,26,09,03,17.50
2017,06,26,09,04,17.50
2017,06,26,09,05,17.60
2017,06,26,09,06,17.70
2017,06,26,09,07,17.80
2017,06,26,09,08,17.80
2017,06,26,09,09,17.90
2017,06,26,09,10,17.90
2017,06,26,09,11,18.00
2017,06,26,09,12,18.10
2017,06,26,09,13,18.20
2017,06,26,09,14,18.20
2017,06,26,09,15,18.10
2017,06,26,09,16,18.10
2017,06,26,09,17,18.10
2017,06,26,09,18,17.90
2017,06,26,09,19,18.10
2017,06,26,09,20,18.10
2017,06,26,09,21,18.20
2017,06,26,09,22,18.20
2017,06,26,09,23,18.20
2017,06,26,09,24,18.20
2017,06,26,09,25,18.20
2017,06,26,09,26,18.20
2017,06,26,09,27,18.20
2017,06,26,09,28,18.20
2017,06,26,09,29,18.20
2017,06,26,09,30,18.20
2017,06,26,09,31,18.20
2017,06,26,09,32,18.30
2017,06,26,09,33,18.40
2017,06,26,09,34,18.50
2017,06,26,09,35,18.60
2017,06,26,09,36,18.80
2017,06,26,09,37,19.00
2017,06,26,09,38,19.10
2017,06,26,09,39,19.30
2017,06,26,09,40,19.40
2017,06,26,09,41,19.50
2017,06,26,09,42,19.70
2017,06,26,09,43,19.70
2017,06,26,09,44,19.80
2017,06,26,09,45,19.80
2017,06,26,09,46,19.80
2017,06,26,09,47,19.80
2017,06,26,09,48,19.90
2017,06,26,09,49,19.80
2017,06,26,09,50,19.80
2017,06,26,09,51,19.80
2017,06,26,09,52,19.80
2017,06,26,09,53,19.80
2017,06,26,09,54,19.80
2017,06,26,09,55,19.70
2017,06,26,09,56,19.70
2017,06,26,09,57,19.80
2017,06,26,09,58,19.80
2017,06,26,09,59,19.70
2017,06,26,10,00,19.80
2017,06,26,10,01,19.90
2017,06,26,10,02,19.90
2017,06,26,10,03,20.00
2017,06,26,10,04,20.10
2017,06,26,10,05,20.10
2017,06,26,10,06,20.20
2017,06,26,10,07,20.20
2017,06,26,10,08,20.20
2017,06,26,10,09,20.20
2017,06,26,10,10,20.20
2017,06,26,10,11,20.20
2017,06,26,10,12,20.20
2017,06,26,10,13,20.20
2017,06,26,10,14,20.20
2017,06,26,10,15,20.30
2017,06,26,10,16,20.30
2017,06,26,10,17,20.30
2017,06,26,10,18,20.40
2017,06,26,10,19,20.40
2017,06,26,10,20,20.40
2017,06,26,10,21,20.40
2017,06,26,10,22,20.40
2017,06,26,10,23,20.40
2017,06,26,10,24,20.50
2017,06,26,10,25,20.50
2017,06,26,10,26,20.50
2017,06,26,10,27,20.40
2017,06,26,10,28,20.30
2017,06,26,10,29,20.10
2017,06,26,10,30,19.90
2017,06,26,10,31,19.70
2017,06,26,10,32,19.50
2017,06,26,10,33,19.30
2017,06,26,10,34,19.10
2017,06,26,10,35,19.10
2017,06,26,10,36,18.90
2017,06,26,10,37,19.00
2017,06,26,10,38,19.10
2017,06,26,10,39,19.10
2017,06,26,10,40,19.10
2017,06,26,10,41,19.20
2017,06,26,10,42,19.40
2017,06,26,10,43,19.50
2017,06,26,10,44,19.50
2017,06,26,10,45,19.50
2017,06,26,10,46,19.50
2017,06,26,10,47,19.60
2017,06,26,10,48,19.50
2017,06,26,10,49,19.40
2017,06,26,10,50,19.40
2017,06,26,10,51,19.40
2017,06,26,10,52,19.20
2017,06,26,10,53,19.00
2017,06,26,10,54,18.80
2017,06,26,10,55,18.60
2017,06,26,10,56,18.50
2017,06,26,10,57,18.40
2017,06,26,10,58,18.40
2017,06,26,10,59,18.40
2017,06,26,11,00,18.30
2017,06,26,11,01,18.20
2017,06,26,11,02,18.10
2017,06,26,11,03,18.10
2017,06,26,11,04,18.10
2017,06,26,11,05,18.10
2017,06,26,11,06,18.10
2017,06,26,11,07,18.10
2017,06,26,11,08,18.20
2017,06,26,11,09,18.20
2017,06,26,11,10,18.40
2017,06,26,11,11,18.60
2017,06,26,11,12,18.60
2017,06,26,11,13,18.70
2017,06,26,11,14,18.80
2017,06,26,11,15,18.80
2017,06,26,11,16,18.80
2017,06,26,11,17,18.90
2017,06,26,11,18,19.00
2017,06,26,11,19,19.10
2017,06,26,11,20,19.10
2017,06,26,11,21,19.10
2017,06,26,11,22,19.10
2017,06,26,11,23,19.10
2017,06,26,11,24,19.10
2017,06,26,11,25,19.10
2017,06,26,11,26,19.10
2017,06,26,11,27,19.10
2017,06,26,11,28,19.10
2017,06,26,11,29,19.20
2017,06,26,11,30,19.30
2017,06,26,11,31,19.40
2017,06,26,11,32,19.40
2017,06,26,11,33,19.30
2017,06,26,11,34,19.20
2017,06,26,11,35,19.10
2017,06,26,11,36,19.10
2017,06,26,11,37,19.00
2017,06,26,11,38,18.90
2017,06,26,11,39,19.00
2017,06,26,11,40,19.10
2017,06,26,11,41,19.10
2017,06,26,11,42,19.10
2017,06,26,11,43,19.20
2017,06,26,11,44,19.20
2017,06,26,11,45,19.00
2017,06,26,11,46,18.70
2017,06,26,11,47,18.40
2017,06,26,11,48,18.20
2017,06,26,11,49,18.20
2017,06,26,11,50,18.00
2017,06,26,11,51,17.80
2017,06,26,11,52,17.70
2017,06,26,11,53,17.60
2017,06,26,11,54,17.50
2017,06,26,11,55,17.50
2017,06,26,11,56,17.60
2017,06,26,11,57,17.70
2017,06,26,11,58,17.90
2017,06,26,11,59,18.00
2017,06,26,12,00,18.10
2017,06,26,12,01,18.20
2017,06,26,12,02,18.20
2017,06,26,12,03,18.20
2017,06,26,12,04,18.20
2017,06,26,12,05,18.10
2017,06,26,12,06,18.10
2017,06,26,12,07,18.20
2017,06,26,12,08,18.20
2017,06,26,12,09,18.20
2017,06,26,12,10,18.30
2017,06,26,12,11,18.30
2017,06,26,12,12,18.40
2017,06,26,12,13,18.40
2017,06,26,12,14,18.30
2017,06,26,12,15,18.10
2017,06,26,12,16,18.00
2017,06,26,12,17,17.70
2017,06,26,12,18,17.40
2017,06,26,12,19,17.10
2017,06,26,12,20,17.00
2017,06,26,12,21,16.90
2017,06,26,12,22,16.90
2017,06,26,12,23,16.90
2017,06,26,12,24,17.00
2017,06,26,12,25,17.00
2017,06,26,12,26,17.20
2017,06,26,12,27,17.40
2017,06,26,12,28,17.60
2017,06,26,12,29,17.80
2017,06,26,12,30,17.90
2017,06,26,12,31,18.00
2017,06,26,12,32,18.20
2017,06,26,12,33,18.30
2017,06,26,12,34,18.20
2017,06,26,12,35,18.20
2017,06,26,12,36,18.20
2017,06,26,12,37,18.30
2017,06,26,12,38,18.30
2017,06,26,12,39,18.30
2017,06,26,12,40,18.30
2017,06,26,12,41,18.40
2017,06,26,12,42,18.50
2017,06,26,12,43,18.50
2017,06,26,12,44,18.60
2017,06,26,12,45,18.70
2017,06,26,12,46,18.70
2017,06,26,12,47,18.70
2017,06,26,12,48,18.60
2017,06,26,12,49,18.50
2017,06,26,12,50,18.50
2017,06,26,12,51,18.50
2017,06,26,12,52,18.50
2017,06,26,12,53,18.40
2017,06,26,12,54,18.30
2017,06,26,12,55,18.30
2017,06,26,12,56,18.40
2017,06,26,12,57,18.30
2017,06,26,12,58,18.30
2017,06,26,12,59,18.30
2017,06,26,13,00,18.30
2017,06,26,13,01,18.40
2017,06,26,13,02,18.50
2017,06,26,13,03,18.60
2017,06,26,13,04,18.60
2017,06,26,13,05,18.50
2017,06,26,13,06,18.30
2017,06,26,13,07,18.20
2017,06,26,13,08,18.20
2017,06,26,13,09,18.20
2017,06,26,13,10,18.20
2017,06,26,13,11,18.10
2017,06,26,13,12,18.10
2017,06,26,13,13,17.90
2017,06,26,13,14,17.90
2017,06,26,13,15,17.90
2017,06,26,13,16,17.90
2017,06,26,13,17,17.80
2017,06,26,13,18,17.80
2017,06,26,13,19,17.80
2017,06,26,13,20,17.80
2017,06,26,13,21,17.70
2017,06,26,13,22,17.70
2017,06,26,13,23,17.60
2017,06,26,13,24,17.60
2017,06,26,13,25,17.60
2017,06,26,13,26,17.60
2017,06,26,13,27,17.60
2017,06,26,13,28,17.70
2017,06,26,13,29,17.60
2017,06,26,13,30,17.70
2017,06,26,13,31,17.80
2017,06,26,13,32,17.90
2017,06,26,13,33,18.00
2017,06,26,13,34,18.10
2017,06,26,13,35,18.10
2017,06,26,13,36,18.10
2017,06,26,13,37,18.20
2017,06,26,13,38,18.10
2017,06,26,13,39,18.00
2017,06,26,13,40,17.90
2017,06,26,13,41,17.90
2017,06,26,13,42,17.80
2017,06,26,13,43,17.90
2017,06,26,13,44,17.90
2017,06,26,13,45,17.90
2017,06,26,13,46,17.90
2017,06,26,13,47,17.90
2017,06,26,13,48,17.90
2017,06,26,13,49,17.90
2017,06,26,13,50,17.90
2017,06,26,13,51,18.00
2017,06,26,13,52,18.10
2017,06,26,13,53,18.20
2017,06,26,13,54,18.40
2017,06,26,13,55,18.40
2017,06,26,13,56,18.50
2017,06,26,13,57,18.50
2017,06,26,13,58,18.50
2017,06,26,13,59,18.60
2017,06,26,14,00,18.70
2017,06,26,14,01,18.70
2017,06,26,14,02,18.80
2017,06,26,14,03,18.90
2017,06,26,14,04,18.90
2017,06,26,14,05,19.10
2017,06,26,14,06,19.20
2017,06,26,14,07,19.40
2017,06,26,14,08,19.50
2017,06,26,14,09,19.60
2017,06,26,14,10,19.70
2017,06,26,14,11,19.80
2017,06,26,14,12,19.90
2017,06,26,14,13,20.10
2017,06,26,14,14,20.20
2017,06,26,14,15,20.20
2017,06,26,14,16,20.20
2017,06,26,14,17,20.30
2017,06,26,14,18,20.40
2017,06,26,14,19,20.50
2017,06,26,14,20,20.70
2017,06,26,14,21,20.80
2017,06,26,14,22,21.00
2017,06,26,14,23,21.20
2017,06,26,14,24,21.30
2017,06,26,14,25,21.40
2017,06,26,14,26,21.50
2017,06,26,14,27,21.60
2017,06,26,14,28,21.60
2017,06,26,14,29,21.60
2017,06,26,14,30,21.60
2017,06,26,14,31,21.50
2017,06,26,14,32,21.60
2017,06,26,14,33,21.60
2017,06,26,14,34,21.70
2017,06,26,14,35,21.90
2017,06,26,14,36,21.90
2017,06,26,14,37,22.00
2017,06,26,14,38,22.10
2017,06,26,14,39,22.20
2017,06,26,14,40,22.30
2017,06,26,14,41,22.40
2017,06,26,14,42,22.50
2017,06,26,14,43,22.50
2017,06,26,14,44,22.60
2017,06,26,14,45,22.80
2017,06,26,14,46,22.90
2017,06,26,14,47,22.90
2017,06,26,14,48,22.90
2017,06,26,14,49,23.10
2017,06,26,14,50,23.10
2017,06,26,14,51,23.10
2017,06,26,14,52,23.20
2017,06,26,14,53,23.20
2017,06,26,14,54,23.30
2017,06,26,14,55,23.40
2017,06,26,14,56,23.60
2017,06,26,14,57,23.70
2017,06,26,14,58,23.90
2017,06,26,14,59,24.00
2017,06,26,15,00,24.10
2017,06,26,15,01,24.10
2017,06,26,15,02,24.20
2017,06,26,15,03,24.40
2017,06,26,15,04,24.50
2017,06,26,15,05,24.70
2017,06,26,15,06,24.90
2017,06,26,15,07,24.90
2017,06,26,15,08,25.10
2017,06,26,15,09,25.20
2017,06,26,15,10,25.40
2017,06,26,15,11,25.40
2017,06,26,15,12,25.50
2017,06,26,15,13,25.50
2017,06,26,15,14,25.70
2017,06,26,15,15,25.90
2017,06,26,15,16,26.10
2017,06,26,15,17,26.20
2017,06,26,15,18,26.20
2017,06,26,15,19,26.20
2017,06,26,15,20,26.20
2017,06,26,15,21,26.20
2017,06,26,15,22,26.10
2017,06,26,15,23,26.00
2017,06,26,15,24,26.00
2017,06,26,15,25,26.00
2017,06,26,15,26,25.90
2017,06,26,15,27,25.90
2017,06,26,15,28,25.90
2017,06,26,15,29,25.90
2017,06,26,15,30,25.90
2017,06,26,15,31,26.00
2017,06,26,15,32,26.00
2017,06,26,15,33,26.00
2017,06,26,15,34,26.00
2017,06,26,15,35,26.00
2017,06,26,15,36,26.00
2017,06,26,15,37,25.90
2017,06,26,15,38,25.80
2017,06,26,15,39,25.70
2017,06,26,15,40,25.60
2017,06,26,15,41,25.60
2017,06,26,15,42,25.60
2017,06,26,15,43,25.50
2017,06,26,15,44,25.40
2017,06,26,15,45,25.40
2017,06,26,15,46,25.40
2017,06,26,15,47,25.30
2017,06,26,15,48,25.30
2017,06,26,15,49,25.20
2017,06,26,15,50,25.10
2017,06,26,15,51,25.00
2017,06,26,15,52,25.00
2017,06,26,15,53,24.90
2017,06,26,15,54,24.90
2017,06,26,15,55,24.90
2017,06,26,15,56,24.80
2017,06,26,15,57,24.70
2017,06,26,15,58,24.60
2017,06,26,15,59,24.70
2017,06,26,16,00,24.70
2017,06,26,16,01,24.70
2017,06,26,16,02,24.70
2017,06,26,16,03,24.80
2017,06,26,16,04,24.90
2017,06,26,16,05,24.90
2017,06,26,16,06,24.90
2017,06,26,16,07,24.90
2017,06,26,16,08,24.80
2017,06,26,16,09,24.80
2017,06,26,16,10,24.90
2017,06,26,16,11,25.00
2017,06,26,16,12,25.20
2017,06,26,16,13,25.40
2017,06,26,16,14,25.40
2017,06,26,16,15,25.50
2017,06,26,16,16,25.60
2017,06,26,16,17,25.50
2017,06,26,16,18,25.40
2017,06,26,16,19,25.30
2017,06,26,16,20,25.20
2017,06,26,16,21,25.10
2017,06,26,16,22,24.90
2017,06,26,16,23,24.90
2017,06,26,16,24,24.80
2017,06,26,16,25,24.70
2017,06,26,16,26,24.70
2017,06,26,16,27,24.60
2017,06,26,16,28,24.60
2017,06,26,16,29,24.50
2017,06,26,16,30,24.50
2017,06,26,16,31,24.40
2017,06,26,16,32,24.40
2017,06,26,16,33,24.40
2017,06,26,16,34,24.40
2017,06,26,16,35,24.30
2017,06,26,16,36,24.30
2017,06,26,16,37,24.30
2017,06,26,16,38,24.30
2017,06,26,16,39,24.30
2017,06,26,16,40,24.30
2017,06,26,16,41,24.20
2017,06,26,16,42,24.20
2017,06,26,16,43,24.10
2017,06,26,16,44,24.10
2017,06,26,16,45,24.20
2017,06,26,16,46,24.20
2017,06,26,16,47,24.20
2017,06,26,16,48,24.30
2017,06,26,16,49,24.30
2017,06,26,16,50,24.30
2017,06,26,16,51,24.30
2017,06,26,16,52,24.20
2017,06,26,16,53,24.10
2017,06,26,16,54,24.10
2017,06,26,16,55,24.10
2017,06,26,16,56,24.10
2017,06,26,16,57,24.10
2017,06,26,16,58,24.10
2017,06,26,16,59,24.10
2017,06,26,17,00,24.10
2017,06,26,17,01,24.10
2017,06,26,17,02,24.10
2017,06,26,17,03,24.10
2017,06,26,17,04,24.20
2017,06,26,17,05,24.20
2017,06,26,17,06,24.40
2017,06,26,17,07,24.50
2017,06,26,17,08,24.60
2017,06,26,17,09,24.60
2017,06,26,17,10,24.70
2017,06,26,17,11,24.70
2017,06,26,17,12,24.90
2017,06,26,17,13,25.00
2017,06,26,17,14,25.10
2017,06,26,17,15,25.20
2017,06,26,17,16,25.30
2017,06,26,17,17,25.40
2017,06,26,17,18,25.50
2017,06,26,17,19,25.50